This demonstration page uses our WeatherBlox Daily Observations layout. Learn more.

Left ArrowRight Arrow

Hourly Observations for May 19, 2021

Temp ( °F °C ) Dew Point ( °F °C ) Humidity (%) Winds ( mph kmh ) Pressure ( in mb ) Visibility ( mi km ) Precip ( " mm )
12:53 am 00:53 Clear 62 16.7 57 13.9 84 84 E 3 6 30.25 1025 10 16 N/A
1:53 am 01:53 Clear 62 16.7 58 14.4 86 86 E 3 6 30.24 1024 10 16 N/A
2:53 am 02:53 Clear 61 16.1 57 13.9 87 87 E 3 6 30.24 1024 10 16 N/A
3:53 am 03:53 Clear 60 15.6 57 13.9 90 90 E 3 6 30.24 1024 10 16 N/A
4:53 am 04:53 Clear 58 14.4 57 13.9 97 97 N N/A 30.25 1025 10 16 N/A
5:53 am 05:53 Clear 58 14.4 56 13.3 93 93 N N/A 30.27 1025 10 16 N/A
6:53 am 06:53 Sunny 58 14.4 57 13.9 97 97 N N/A 30.28 1025 9 14 N/A
7:53 am 07:53 Sunny 64 17.8 59 15 84 84 E 3 6 30.30 1026 10 16 N/A
8:53 am 08:53 Sunny 69 20.6 60 15.6 73 73 ESE 5 7 30.31 1026 10 16 N/A
9:53 am 09:53 Mostly Sunny 73 22.8 60 15.6 64 64 VRB 5 7 30.32 1027 10 16 N/A
10:53 am 10:53 Mostly Cloudy 77 25 59 15 54 54 VRB 5 7 30.32 1027 10 16 N/A
11:53 am 11:53 Mostly Sunny 80 26.7 60 15.6 51 51 SW 7 11 30.31 1027 10 16 N/A
12:53 pm 12:53 Partly Cloudy 80 26.7 59 15 49 49 VRB 5 7 30.31 1027 10 16 N/A
1:53 pm 13:53 Mostly Sunny 81 27.2 61 16.1 51 51 N N/A 30.29 1026 10 16 N/A
2:53 pm 14:53 Mostly Cloudy 79 26.1 61 16.1 54 54 W 8 13 30.29 1026 10 16 N/A
3:53 pm 15:53 Partly Cloudy 80 26.7 60 15.6 51 51 SW 7 11 30.28 1026 10 16 N/A
4:53 pm 16:53 Sunny 80 26.7 60 15.6 51 51 VRB 3 6 30.27 1025 10 16 N/A
5:53 pm 17:53 Mostly Sunny 81 27.2 62 16.7 53 53 VRB 3 6 30.26 1025 10 16 N/A
6:53 pm 18:53 Sunny 81 27.2 62 16.7 53 53 WSW 3 6 30.26 1025 10 16 N/A
7:53 pm 19:53 Sunny 74 23.3 65 18.3 74 74 N N/A 30.25 1024 10 16 N/A
8:53 pm 20:53 Clear 69 20.6 64 17.8 84 84 N N/A 30.25 1024 10 16 N/A
9:53 pm 21:53 Clear 66 18.9 63 17.2 90 90 N N/A 30.26 1025 9 14 N/A
10:53 pm 22:53 Clear 64 17.8 63 17.2 96 96 N N/A 30.27 1025 7 11 N/A
11:53 pm 23:53 Clear 63 17.2 61 16.1 93 93 N N/A 30.27 1025 8 13 N/A

Powered by AerisWeather